Simultaneous Nadir Overpasses (SNOs) Predictions

Prediction of SNOs between NOAA-19 and NPP Satellite Orbit:

Table of predicted SNOs for the next 14.0 days since TLE Epoch: 6/5/2020
Index Date (NOAA-19) Time (NOAA-19) Lat,Lon (NOAA-19) SZA (NOAA-19 ) Date (NPP) Time (NPP) Lat,Lon (NPP) SZA (NPP ) Distance(km) Time Diff (sec)
1 06/18/2020 22:06:36 -79.30, -4.52 122.27 06/18/2020 22:07:44 -79.27, -4.49 122.33 3.30 68
2 06/18/2020 22:57:34 79.28, 162.59 57.73 06/18/2020 22:58:30 79.30, 162.60 57.72 1.89 56
3 06/18/2020 23:48:37 -79.29, -30.12 122.27 06/18/2020 23:49:15 -79.31, -30.15 122.27 2.43 38
4 06/19/2020 00:39:34 79.30, 137.25 57.73 06/19/2020 00:40:00 79.30, 137.20 57.73 1.19 26
5 06/19/2020 01:30:37 -79.30, -55.46 122.28 06/19/2020 01:30:45 -79.31, -55.56 122.26 2.15 8
6 06/19/2020 02:21:34 79.32, 111.91 57.73 06/19/2020 02:21:30 79.31, 111.79 57.73 2.73 4
7 06/19/2020 03:12:38 -79.29, -81.07 122.27 06/19/2020 03:12:15 -79.32, -80.96 122.26 3.43 23
8 06/19/2020 04:03:35 79.30, 86.30 57.73 06/19/2020 04:03:00 79.31, 86.39 57.74 1.97 35
9 06/19/2020 04:54:38 -79.31,-106.41 122.28 06/19/2020 04:53:45 -79.32,-106.37 122.25 1.33 53
10 06/19/2020 05:45:35 79.32, 60.96 57.72 06/19/2020 05:44:30 79.32, 60.98 57.75 0.84 65




NCC Satellite Simultaneous Nadir Overpasses (SNOs) Prediction Service
